Back to catalog

STARLINK-3146

AliveCommunicationsVLEO
NORAD 49414·PAYLOAD·🇺🇸 United States

Launched Nov 13, 2021 from Cape Canaveral Space Force Station

Loading…

Next Passes (next 24 hours)

TLE

FreshSource: CelesTrak SupGP

Epoch: Sep 14, 2026, 13:41 UTC

1 49414C 21104G   26257.57062500  .00002805  00000+0  85100-4 0  2576
2 49414  53.1577  89.5420 0001379  95.2470 194.4286 15.33554256    11

Track STARLINK-3146 in real time with AllMySat

Download on the App Store